Simultaneous Nadir Overpasses (SNOs) Predictions

Prediction of SNOs between FY3D and AQUA Satellite Orbit:

Table of predicted SNOs for the next 14.0 days since TLE Epoch: 6/29/2020
Index Date (FY3D) Time (FY3D) Lat,Lon (FY3D) SZA (FY3D ) Date (AQUA) Time (AQUA) Lat,Lon (AQUA) SZA (AQUA ) Distance(km) Time Diff (sec)
1 07/01/2020 20:09:38 51.78, 91.47 99.99 07/01/2020 20:10:51 51.75, 91.70 99.84 16.08 73
2 07/01/2020 20:56:20 -65.58, -91.70 93.95 07/01/2020 20:56:22 -65.57, -91.75 93.93 2.11 2
3 07/01/2020 21:45:50 69.49, 80.37 81.95 07/01/2020 21:44:37 69.48, 80.31 82.05 2.46 73
4 07/04/2020 13:13:08 -64.17, 22.83 92.24 07/04/2020 13:13:14 -64.17, 22.86 92.26 1.50 6
5 07/04/2020 14:02:34 68.32,-165.31 83.44 07/04/2020 14:01:25 68.33,-165.26 83.49 2.24 69
6 07/07/2020 05:29:33 -64.07, 138.65 91.86 07/07/2020 05:29:44 -64.07, 138.66 91.87 0.28 11
7 07/07/2020 06:19:01 68.12, -49.66 83.94 07/07/2020 06:17:57 68.12, -49.62 83.99 1.56 64
8 07/09/2020 21:45:58 -63.97,-105.53 91.42 07/09/2020 21:46:14 -63.97,-105.55 91.43 1.17 16
9 07/09/2020 22:35:27 67.96, 66.06 84.43 07/09/2020 22:34:28 67.97, 66.07 84.49 0.62 59
10 07/12/2020 14:02:44 -62.71, 9.28 89.76 07/12/2020 14:03:04 -62.71, 9.31 89.79 1.65 20
